Time,TemperatureF,DewpointF,PressureIn,WindDirection,WindDirectionDegrees,WindSpeedMPH,WindSpeedGustMPH,Humidity,HourlyPrecipIn,Conditions,Clouds,dailyrainin,SoftwareType,DateUTC
2013-06-09 00:00:00,61.0,60.6,30.03,West,267,3.0,4.0,99,0.00,,,0.00,HR-IXPWINDi_r2_v1.2.,2013-06-09 04:00:00,
2013-06-09 00:01:00,61.0,60.6,30.03,West,263,2.0,4.0,99,0.00,,,0.00,HR-IXPWINDi_r2_v1.2.,2013-06-09 04:01:00,
2013-06-09 00:06:00,61.0,60.6,30.03,West,274,1.0,4.0,99,0.00,,,0.00,HR-IXPWINDi_r2_v1.2.,2013-06-09 04:06:00,
2013-06-09 00:11:00,61.0,60.6,30.04,West,264,3.0,4.0,99,0.00,,,0.00,HR-IXPWINDi_r2_v1.2.,2013-06-09 04:11:00,
2013-06-09 00:16:00,61.0,60.4,30.03,SW,233,1.0,3.0,98,0.00,,,0.00,HR-IXPWINDi_r2_v1.2.,2013-06-09 04:16:00,
2013-06-09 00:21:00,61.0,60.4,30.04,SW,228,0.0,3.0,98,0.00,,,0.00,HR-IXPWINDi_r2_v1.2.,2013-06-09 04:21:00,
2013-06-09 00:27:00,61.0,60.4,30.04,SW,228,1.0,2.0,98,0.00,,,0.00,HR-IXPWINDi_r2_v1.2.,2013-06-09 04:27:00,
2013-06-09 00:32:00,60.9,60.3,30.04,WSW,238,2.0,3.0,98,0.00,,,0.00,HR-IXPWINDi_r2_v1.2.,2013-06-09 04:32:00,
2013-06-09 00:37:00,60.6,60.0,30.04,WSW,240,1.0,3.0,98,0.00,,,0.00,HR-IXPWINDi_r2_v1.2.,2013-06-09 04:37:00,
2013-06-09 00:42:00,60.6,60.0,30.05,WSW,240,1.0,3.0,98,0.00,,,0.00,HR-IXPWINDi_r2_v1.2.,2013-06-09 04:42:00,
2013-06-09 00:48:00,-999.0,99.9,30.04,North,-999,-999.0,-999.0,-999,99.99,,,0.00,HR-IXPWINDi_r2_v1.2.,2013-06-09 04:48:00,
2013-06-09 00:53:00,-999.0,99.9,30.05,North,-999,-999.0,-999.0,-999,99.99,,,0.00,HR-IXPWINDi_r2_v1.2.,2013-06-09 04:53:00,
2013-06-09 00:58:00,-999.0,99.9,30.05,North,-999,-999.0,-999.0,-999,99.99,,,0.00,HR-IXPWINDi_r2_v1.2.,2013-06-09 04:58:00,
2013-06-09 01:03:00,-999.0,99.9,30.05,North,-999,-999.0,-999.0,-999,99.99,,,0.00,HR-IXPWINDi_r2_v1.2.,2013-06-09 05:03:00,
2013-06-09 01:08:00,-999.0,99.9,30.05,North,-999,-999.0,-999.0,-999,99.99,,,0.00,HR-IXPWINDi_r2_v1.2.,2013-06-09 05:08:00,
2013-06-09 01:13:00,-999.0,99.9,30.05,North,-999,-999.0,-999.0,-999,99.99,,,0.00,HR-IXPWINDi_r2_v1.2.,2013-06-09 05:13:00,
2013-06-09 01:18:00,-999.0,99.9,30.05,North,-999,-999.0,-999.0,-999,99.99,,,0.00,HR-IXPWINDi_r2_v1.2.,2013-06-09 05:18:00,
2013-06-09 01:24:00,-999.0,99.9,30.06,North,-999,-999.0,-999.0,-999,99.99,,,0.00,HR-IXPWINDi_r2_v1.2.,2013-06-09 05:24:00,
2013-06-09 01:29:00,-999.0,99.9,30.06,North,-999,-999.0,-999.0,-999,99.99,,,0.00,HR-IXPWINDi_r2_v1.2.,2013-06-09 05:29:00,
2013-06-09 01:34:00,-999.0,99.9,30.06,North,-999,-999.0,-999.0,-999,99.99,,,0.00,HR-IXPWINDi_r2_v1.2.,2013-06-09 05:34:00,
2013-06-09 01:39:00,-999.0,99.9,30.06,North,-999,-999.0,-999.0,-999,99.99,,,0.00,HR-IXPWINDi_r2_v1.2.,2013-06-09 05:39:00,
2013-06-09 01:44:00,-999.0,99.9,30.06,North,-999,-999.0,-999.0,-999,99.99,,,0.00,HR-IXPWINDi_r2_v1.2.,2013-06-09 05:44:00,
2013-06-09 01:50:00,-999.0,99.9,30.06,North,-999,-999.0,-999.0,-999,99.99,,,0.00,HR-IXPWINDi_r2_v1.2.,2013-06-09 05:50:00,
2013-06-09 01:55:00,-999.0,99.9,30.06,North,-999,-999.0,-999.0,-999,99.99,,,0.00,HR-IXPWINDi_r2_v1.2.,2013-06-09 05:55:00,
2013-06-09 02:00:00,-999.0,99.9,30.06,North,-999,-999.0,-999.0,-999,99.99,,,0.00,HR-IXPWINDi_r2_v1.2.,2013-06-09 06:00:00,
2013-06-09 02:05:00,-999.0,99.9,30.06,North,-999,-999.0,-999.0,-999,99.99,,,0.00,HR-IXPWINDi_r2_v1.2.,2013-06-09 06:05:00,
2013-06-09 02:10:00,-999.0,99.9,30.06,North,-999,-999.0,-999.0,-999,99.99,,,0.00,HR-IXPWINDi_r2_v1.2.,2013-06-09 06:10:00,
2013-06-09 02:16:00,-999.0,99.9,30.06,North,-999,-999.0,-999.0,-999,99.99,,,0.00,HR-IXPWINDi_r2_v1.2.,2013-06-09 06:16:00,
2013-06-09 02:21:00,-999.0,99.9,30.06,North,-999,-999.0,-999.0,-999,99.99,,,0.00,HR-IXPWINDi_r2_v1.2.,2013-06-09 06:21:00,
2013-06-09 02:26:00,-999.0,99.9,30.06,North,-999,-999.0,-999.0,-999,99.99,,,0.00,HR-IXPWINDi_r2_v1.2.,2013-06-09 06:26:00,
2013-06-09 02:32:00,-999.0,99.9,30.06,North,-999,-999.0,-999.0,-999,99.99,,,0.00,HR-IXPWINDi_r2_v1.2.,2013-06-09 06:32:00,
2013-06-09 02:37:00,-999.0,99.9,30.06,North,-999,-999.0,-999.0,-999,99.99,,,0.00,HR-IXPWINDi_r2_v1.2.,2013-06-09 06:37:00,
2013-06-09 02:42:00,-999.0,99.9,30.06,North,-999,-999.0,-999.0,-999,99.99,,,0.00,HR-IXPWINDi_r2_v1.2.,2013-06-09 06:42:00,
2013-06-09 02:47:00,-999.0,99.9,30.06,North,-999,-999.0,-999.0,-999,99.99,,,0.00,HR-IXPWINDi_r2_v1.2.,2013-06-09 06:47:00,
2013-06-09 02:52:00,-999.0,99.9,30.06,North,-999,-999.0,-999.0,-999,99.99,,,0.00,HR-IXPWINDi_r2_v1.2.,2013-06-09 06:52:00,
2013-06-09 02:57:00,-999.0,99.9,30.06,North,-999,-999.0,-999.0,-999,99.99,,,0.00,HR-IXPWINDi_r2_v1.2.,2013-06-09 06:57:00,
2013-06-09 03:03:00,-999.0,99.9,30.06,North,-999,-999.0,-999.0,-999,99.99,,,0.00,HR-IXPWINDi_r2_v1.2.,2013-06-09 07:03:00,
2013-06-09 03:08:00,-999.0,99.9,30.06,North,-999,-999.0,-999.0,-999,99.99,,,0.00,HR-IXPWINDi_r2_v1.2.,2013-06-09 07:08:00,
2013-06-09 03:13:00,-999.0,99.9,30.06,North,-999,-999.0,-999.0,-999,99.99,,,0.00,HR-IXPWINDi_r2_v1.2.,2013-06-09 07:13:00,
2013-06-09 03:18:00,-999.0,99.9,30.06,North,-999,-999.0,-999.0,-999,99.99,,,0.00,HR-IXPWINDi_r2_v1.2.,2013-06-09 07:18:00,
2013-06-09 03:23:00,-999.0,99.9,30.06,North,-999,-999.0,-999.0,-999,99.99,,,0.00,HR-IXPWINDi_r2_v1.2.,2013-06-09 07:23:00,
2013-06-09 03:28:00,-999.0,99.9,30.07,North,-999,-999.0,-999.0,-999,99.99,,,0.00,HR-IXPWINDi_r2_v1.2.,2013-06-09 07:28:00,
2013-06-09 03:33:00,-999.0,99.9,30.07,North,-999,-999.0,-999.0,-999,99.99,,,0.00,HR-IXPWINDi_r2_v1.2.,2013-06-09 07:33:00,
2013-06-09 03:39:00,-999.0,99.9,30.07,North,-999,-999.0,-999.0,-999,99.99,,,0.00,HR-IXPWINDi_r2_v1.2.,2013-06-09 07:39:00,
2013-06-09 03:44:00,-999.0,99.9,30.07,North,-999,-999.0,-999.0,-999,99.99,,,0.00,HR-IXPWINDi_r2_v1.2.,2013-06-09 07:44:00,
2013-06-09 03:49:00,-999.0,99.9,30.07,North,-999,-999.0,-999.0,-999,99.99,,,0.00,HR-IXPWINDi_r2_v1.2.,2013-06-09 07:49:00,
2013-06-09 03:54:00,-999.0,99.9,30.07,North,-999,-999.0,-999.0,-999,99.99,,,0.00,HR-IXPWINDi_r2_v1.2.,2013-06-09 07:54:00,
2013-06-09 04:00:00,-999.0,99.9,30.07,North,-999,-999.0,-999.0,-999,99.99,,,0.00,HR-IXPWINDi_r2_v1.2.,2013-06-09 08:00:00,
2013-06-09 04:05:00,-999.0,99.9,30.07,North,-999,-999.0,-999.0,-999,99.99,,,0.00,HR-IXPWINDi_r2_v1.2.,2013-06-09 08:05:00,
2013-06-09 04:10:00,-999.0,99.9,30.08,North,-999,-999.0,-999.0,-999,99.99,,,0.00,HR-IXPWINDi_r2_v1.2.,2013-06-09 08:10:00,
2013-06-09 04:15:00,-999.0,99.9,30.08,North,-999,-999.0,-999.0,-999,99.99,,,0.00,HR-IXPWINDi_r2_v1.2.,2013-06-09 08:15:00,
2013-06-09 04:20:00,-999.0,99.9,30.08,North,-999,-999.0,-999.0,-999,99.99,,,0.00,HR-IXPWINDi_r2_v1.2.,2013-06-09 08:20:00,
2013-06-09 04:26:00,-999.0,99.9,30.08,North,-999,-999.0,-999.0,-999,99.99,,,0.00,HR-IXPWINDi_r2_v1.2.,2013-06-09 08:26:00,
2013-06-09 04:31:00,-999.0,99.9,30.08,North,-999,-999.0,-999.0,-999,99.99,,,0.00,HR-IXPWINDi_r2_v1.2.,2013-06-09 08:31:00,
2013-06-09 04:36:00,-999.0,99.9,30.08,North,-999,-999.0,-999.0,-999,99.99,,,0.00,HR-IXPWINDi_r2_v1.2.,2013-06-09 08:36:00,
2013-06-09 04:42:00,-999.0,99.9,30.09,North,-999,-999.0,-999.0,-999,99.99,,,0.00,HR-IXPWINDi_r2_v1.2.,2013-06-09 08:42:00,
2013-06-09 04:47:00,-999.0,99.9,30.09,North,-999,-999.0,-999.0,-999,99.99,,,0.00,HR-IXPWINDi_r2_v1.2.,2013-06-09 08:47:00,
2013-06-09 04:52:00,-999.0,99.9,30.09,North,-999,-999.0,-999.0,-999,99.99,,,0.00,HR-IXPWINDi_r2_v1.2.,2013-06-09 08:52:00,
2013-06-09 04:57:00,-999.0,99.9,30.08,North,-999,-999.0,-999.0,-999,99.99,,,0.00,HR-IXPWINDi_r2_v1.2.,2013-06-09 08:57:00,
2013-06-09 05:02:00,-999.0,99.9,30.09,North,-999,-999.0,-999.0,-999,99.99,,,0.00,HR-IXPWINDi_r2_v1.2.,2013-06-09 09:02:00,
2013-06-09 05:07:00,-999.0,99.9,30.09,North,-999,-999.0,-999.0,-999,99.99,,,0.00,HR-IXPWINDi_r2_v1.2.,2013-06-09 09:07:00,
2013-06-09 05:12:00,-999.0,99.9,30.09,North,-999,-999.0,-999.0,-999,99.99,,,0.00,HR-IXPWINDi_r2_v1.2.,2013-06-09 09:12:00,
2013-06-09 05:17:00,-999.0,99.9,30.09,North,-999,-999.0,-999.0,-999,99.99,,,0.00,HR-IXPWINDi_r2_v1.2.,2013-06-09 09:17:00,
2013-06-09 05:22:00,-999.0,99.9,30.10,North,-999,-999.0,-999.0,-999,99.99,,,0.00,HR-IXPWINDi_r2_v1.2.,2013-06-09 09:22:00,
2013-06-09 05:28:00,-999.0,99.9,30.10,North,-999,-999.0,-999.0,-999,99.99,,,0.00,HR-IXPWINDi_r2_v1.2.,2013-06-09 09:28:00,
2013-06-09 05:33:00,-999.0,99.9,30.10,North,-999,-999.0,-999.0,-999,99.99,,,0.00,HR-IXPWINDi_r2_v1.2.,2013-06-09 09:33:00,
2013-06-09 05:38:00,-999.0,99.9,30.10,North,-999,-999.0,-999.0,-999,99.99,,,0.00,HR-IXPWINDi_r2_v1.2.,2013-06-09 09:38:00,
2013-06-09 05:43:00,-999.0,99.9,30.11,North,-999,-999.0,-999.0,-999,99.99,,,0.00,HR-IXPWINDi_r2_v1.2.,2013-06-09 09:43:00,
2013-06-09 05:48:00,-999.0,99.9,30.11,North,-999,-999.0,-999.0,-999,99.99,,,0.00,HR-IXPWINDi_r2_v1.2.,2013-06-09 09:48:00,
2013-06-09 05:53:00,-999.0,99.9,30.11,North,-999,-999.0,-999.0,-999,99.99,,,0.00,HR-IXPWINDi_r2_v1.2.,2013-06-09 09:53:00,
2013-06-09 05:59:00,-999.0,99.9,30.11,North,-999,-999.0,-999.0,-999,99.99,,,0.00,HR-IXPWINDi_r2_v1.2.,2013-06-09 09:59:00,
2013-06-09 06:04:00,-999.0,99.9,30.12,North,-999,-999.0,-999.0,-999,99.99,,,0.00,HR-IXPWINDi_r2_v1.2.,2013-06-09 10:04:00,
2013-06-09 06:09:00,60.3,57.9,30.12,WSW,241,2.0,255.0,92,0.00,,,0.00,HR-IXPWINDi_r2_v1.2.,2013-06-09 10:09:00,
2013-06-09 06:14:00,60.4,58.0,30.12,SW,222,3.0,255.0,92,0.00,,,0.00,HR-IXPWINDi_r2_v1.2.,2013-06-09 10:14:00,
2013-06-09 06:19:00,60.5,58.4,30.12,SSW,207,6.0,6.0,93,0.00,,,0.00,HR-IXPWINDi_r2_v1.2.,2013-06-09 10:19:00,
2013-06-09 06:25:00,60.6,58.5,30.12,SSW,212,1.0,6.0,93,0.00,,,0.00,HR-IXPWINDi_r2_v1.2.,2013-06-09 10:25:00,
2013-06-09 06:30:00,60.5,58.1,30.13,WNW,282,0.0,6.0,92,0.00,,,0.00,HR-IXPWINDi_r2_v1.2.,2013-06-09 10:30:00,
2013-06-09 06:35:00,60.5,58.1,30.13,WSW,255,0.0,3.0,92,0.00,,,0.00,HR-IXPWINDi_r2_v1.2.,2013-06-09 10:35:00,
2013-06-09 06:40:00,60.9,58.5,30.13,SW,214,2.0,3.0,92,0.00,,,0.00,HR-IXPWINDi_r2_v1.2.,2013-06-09 10:40:00,
2013-06-09 06:45:00,61.3,58.9,30.13,SSW,212,3.0,5.0,92,0.00,,,0.00,HR-IXPWINDi_r2_v1.2.,2013-06-09 10:45:00,
2013-06-09 06:50:00,61.5,59.1,30.13,WSW,246,2.0,5.0,92,0.00,,,0.00,HR-IXPWINDi_r2_v1.2.,2013-06-09 10:50:00,
2013-06-09 06:56:00,61.8,59.1,30.13,WSW,255,1.0,5.0,91,0.00,,,0.00,HR-IXPWINDi_r2_v1.2.,2013-06-09 10:56:00,
2013-06-09 07:01:00,62.5,58.8,30.13,WNW,297,1.0,5.0,88,0.00,,,0.00,HR-IXPWINDi_r2_v1.2.,2013-06-09 11:01:00,
2013-06-09 07:06:00,63.1,59.1,30.14,West,264,2.0,6.0,87,0.00,,,0.00,HR-IXPWINDi_r2_v1.2.,2013-06-09 11:06:00,
2013-06-09 07:12:00,63.6,59.3,30.14,WSW,250,3.0,6.0,86,0.00,,,0.00,HR-IXPWINDi_r2_v1.2.,2013-06-09 11:12:00,
2013-06-09 07:17:00,64.2,59.2,30.14,NW,309,0.0,5.0,84,0.00,,,0.00,HR-IXPWINDi_r2_v1.2.,2013-06-09 11:17:00,
2013-06-09 07:22:00,64.7,59.0,30.14,NW,307,5.0,6.0,82,0.00,,,0.00,HR-IXPWINDi_r2_v1.2.,2013-06-09 11:22:00,
2013-06-09 07:27:00,65.2,58.8,30.14,West,267,4.0,6.0,80,0.00,,,0.00,HR-IXPWINDi_r2_v1.2.,2013-06-09 11:27:00,
2013-06-09 07:32:00,65.6,58.8,30.14,West,277,2.0,6.0,79,0.00,,,0.00,HR-IXPWINDi_r2_v1.2.,2013-06-09 11:32:00,
2013-06-09 07:37:00,66.1,59.0,30.14,NW,311,4.0,7.0,78,0.00,,,0.00,HR-IXPWINDi_r2_v1.2.,2013-06-09 11:37:00,
2013-06-09 07:42:00,66.4,59.3,30.14,West,274,3.0,8.0,78,0.00,,,0.00,HR-IXPWINDi_r2_v1.2.,2013-06-09 11:42:00,
2013-06-09 07:48:00,66.5,59.4,30.14,WNW,297,2.0,9.0,78,0.00,,,0.00,HR-IXPWINDi_r2_v1.2.,2013-06-09 11:48:00,
2013-06-09 07:53:00,66.7,59.2,30.14,NNW,334,4.0,9.0,77,0.00,,,0.00,HR-IXPWINDi_r2_v1.2.,2013-06-09 11:53:00,
2013-06-09 07:58:00,66.9,59.0,30.14,NW,314,5.0,9.0,76,0.00,,,0.00,HR-IXPWINDi_r2_v1.2.,2013-06-09 11:58:00,
2013-06-09 08:03:00,67.4,59.9,30.14,NNW,329,1.0,9.0,77,0.00,,,0.00,HR-IXPWINDi_r2_v1.2.,2013-06-09 12:03:00,
2013-06-09 08:08:00,67.6,59.3,30.14,NW,317,6.0,12.0,75,0.00,,,0.00,HR-IXPWINDi_r2_v1.2.,2013-06-09 12:08:00,
2013-06-09 08:13:00,67.8,59.9,30.14,NNW,330,6.0,12.0,76,0.00,,,0.00,HR-IXPWINDi_r2_v1.2.,2013-06-09 12:13:00,
2013-06-09 08:19:00,68.0,59.7,30.14,NW,320,10.0,13.0,75,0.00,,,0.00,HR-IXPWINDi_r2_v1.2.,2013-06-09 12:19:00,
2013-06-09 08:24:00,68.1,59.4,30.14,NNW,340,3.0,13.0,74,0.00,,,0.00,HR-IXPWINDi_r2_v1.2.,2013-06-09 12:24:00,
2013-06-09 08:29:00,68.3,59.6,30.14,NNW,332,6.0,13.0,74,0.00,,,0.00,HR-IXPWINDi_r2_v1.2.,2013-06-09 12:29:00,
2013-06-09 08:34:00,68.6,58.8,30.14,NW,324,8.0,13.0,71,0.00,,,0.00,HR-IXPWINDi_r2_v1.2.,2013-06-09 12:34:00,
2013-06-09 08:39:00,68.8,59.3,30.14,NNW,347,7.0,13.0,72,0.00,,,0.00,HR-IXPWINDi_r2_v1.2.,2013-06-09 12:39:00,
2013-06-09 08:44:00,69.0,59.9,30.14,NW,326,4.0,11.0,73,0.00,,,0.00,HR-IXPWINDi_r2_v1.2.,2013-06-09 12:44:00,
2013-06-09 08:49:00,69.4,59.9,30.15,NNW,333,2.0,10.0,72,0.00,,,0.00,HR-IXPWINDi_r2_v1.2.,2013-06-09 12:49:00,
2013-06-09 08:54:00,69.7,59.8,30.15,NW,315,6.0,9.0,71,0.00,,,0.00,HR-IXPWINDi_r2_v1.2.,2013-06-09 12:54:00,
2013-06-09 09:00:00,69.8,59.9,30.15,NW,320,3.0,8.0,71,0.00,,,0.00,HR-IXPWINDi_r2_v1.2.,2013-06-09 13:00:00,
2013-06-09 09:05:00,70.3,60.0,30.15,WNW,288,2.0,8.0,70,0.00,,,0.00,HR-IXPWINDi_r2_v1.2.,2013-06-09 13:05:00,
2013-06-09 09:10:00,68.4,60.5,30.15,SSW,212,7.0,12.0,76,0.00,,,0.00,HR-IXPWINDi_r2_v1.2.,2013-06-09 13:10:00,
2013-06-09 09:15:00,67.1,60.3,30.15,SW,214,6.0,13.0,79,0.00,,,0.00,HR-IXPWINDi_r2_v1.2.,2013-06-09 13:15:00,
2013-06-09 09:20:00,66.1,60.4,30.15,SW,217,15.0,15.0,82,0.00,,,0.00,HR-IXPWINDi_r2_v1.2.,2013-06-09 13:20:00,
2013-06-09 09:25:00,65.0,60.0,30.15,South,172,7.0,17.0,84,0.00,,,0.00,HR-IXPWINDi_r2_v1.2.,2013-06-09 13:25:00,
2013-06-09 09:31:00,64.7,60.0,30.15,SSW,203,8.0,17.0,85,0.00,,,0.00,HR-IXPWINDi_r2_v1.2.,2013-06-09 13:31:00,
2013-06-09 09:36:00,64.2,59.9,30.15,SSW,212,11.0,13.0,86,0.00,,,0.00,HR-IXPWINDi_r2_v1.2.,2013-06-09 13:36:00,
2013-06-09 09:41:00,63.7,59.7,30.15,South,181,9.0,13.0,87,0.00,,,0.00,HR-IXPWINDi_r2_v1.2.,2013-06-09 13:41:00,
2013-06-09 09:46:00,63.8,59.8,30.15,SSW,203,9.0,13.0,87,0.00,,,0.00,HR-IXPWINDi_r2_v1.2.,2013-06-09 13:46:00,
2013-06-09 09:52:00,64.0,60.0,30.15,SW,219,12.0,13.0,87,0.00,,,0.00,HR-IXPWINDi_r2_v1.2.,2013-06-09 13:52:00,
2013-06-09 09:57:00,63.8,59.8,30.15,SW,217,7.0,13.0,87,0.00,,,0.00,HR-IXPWINDi_r2_v1.2.,2013-06-09 13:57:00,
2013-06-09 10:02:00,64.4,60.1,30.15,SW,233,10.0,12.0,86,0.00,,,0.00,HR-IXPWINDi_r2_v1.2.,2013-06-09 14:02:00,
2013-06-09 10:07:00,64.7,60.0,30.16,SSW,212,12.0,13.0,85,0.00,,,0.00,HR-IXPWINDi_r2_v1.2.,2013-06-09 14:07:00,
2013-06-09 10:12:00,64.7,60.3,30.16,SSW,207,9.0,13.0,86,0.00,,,0.00,HR-IXPWINDi_r2_v1.2.,2013-06-09 14:12:00,
2013-06-09 10:17:00,64.7,60.0,30.16,SW,225,12.0,14.0,85,0.00,,,0.00,HR-IXPWINDi_r2_v1.2.,2013-06-09 14:17:00,
2013-06-09 10:22:00,64.9,60.2,30.16,SW,218,10.0,15.0,85,0.00,,,0.00,HR-IXPWINDi_r2_v1.2.,2013-06-09 14:22:00,
2013-06-09 10:27:00,65.2,60.2,30.16,SW,217,13.0,15.0,84,0.00,,,0.00,HR-IXPWINDi_r2_v1.2.,2013-06-09 14:27:00,
2013-06-09 10:32:00,65.3,60.3,30.16,South,191,10.0,16.0,84,0.00,,,0.00,HR-IXPWINDi_r2_v1.2.,2013-06-09 14:32:00,
2013-06-09 10:38:00,65.6,60.6,30.16,WSW,246,11.0,16.0,84,0.00,,,0.00,HR-IXPWINDi_r2_v1.2.,2013-06-09 14:38:00,
2013-06-09 10:43:00,65.7,60.3,30.16,SW,229,10.0,16.0,83,0.00,,,0.00,HR-IXPWINDi_r2_v1.2.,2013-06-09 14:43:00,
2013-06-09 10:48:00,65.8,60.4,30.16,SW,219,10.0,15.0,83,0.00,,,0.00,HR-IXPWINDi_r2_v1.2.,2013-06-09 14:48:00,
2013-06-09 10:53:00,66.0,60.3,30.16,SSW,206,13.0,16.0,82,0.00,,,0.00,HR-IXPWINDi_r2_v1.2.,2013-06-09 14:53:00,
2013-06-09 10:58:00,65.8,60.4,30.16,SSW,206,12.0,16.0,83,0.00,,,0.00,HR-IXPWINDi_r2_v1.2.,2013-06-09 14:58:00,
2013-06-09 11:03:00,66.1,60.4,30.16,SW,219,10.0,16.0,82,0.00,,,0.00,HR-IXPWINDi_r2_v1.2.,2013-06-09 15:03:00,
2013-06-09 11:08:00,66.3,60.9,30.16,SSW,212,14.0,18.0,83,0.00,,,0.00,HR-IXPWINDi_r2_v1.2.,2013-06-09 15:08:00,
2013-06-09 11:14:00,66.1,60.4,30.16,SSW,212,15.0,18.0,82,0.00,,,0.00,HR-IXPWINDi_r2_v1.2.,2013-06-09 15:14:00,
2013-06-09 11:19:00,66.0,61.0,30.16,SSW,193,9.0,17.0,84,0.00,,,0.00,HR-IXPWINDi_r2_v1.2.,2013-06-09 15:19:00,
2013-06-09 11:24:00,65.2,60.5,30.16,SSW,208,11.0,17.0,85,0.00,,,0.00,HR-IXPWINDi_r2_v1.2.,2013-06-09 15:24:00,
2013-06-09 11:29:00,65.4,60.4,30.16,SW,217,8.0,17.0,84,0.00,,,0.00,HR-IXPWINDi_r2_v1.2.,2013-06-09 15:29:00,
2013-06-09 11:34:00,65.9,60.9,30.16,SSW,210,15.0,15.0,84,0.00,,,0.00,HR-IXPWINDi_r2_v1.2.,2013-06-09 15:34:00,
2013-06-09 11:40:00,65.9,60.5,30.16,SW,217,15.0,19.0,83,0.00,,,0.00,HR-IXPWINDi_r2_v1.2.,2013-06-09 15:40:00,
2013-06-09 11:45:00,66.0,61.0,30.15,SW,225,15.0,19.0,84,0.00,,,0.00,HR-IXPWINDi_r2_v1.2.,2013-06-09 15:45:00,
2013-06-09 11:50:00,66.3,61.6,30.15,SSW,210,13.0,17.0,85,0.00,,,0.00,HR-IXPWINDi_r2_v1.2.,2013-06-09 15:50:00,
2013-06-09 11:55:00,66.6,61.5,30.15,SW,222,12.0,17.0,84,0.00,,,0.00,HR-IXPWINDi_r2_v1.2.,2013-06-09 15:55:00,
2013-06-09 12:00:00,66.6,61.2,30.15,SSW,210,13.0,16.0,83,0.00,,,0.00,HR-IXPWINDi_r2_v1.2.,2013-06-09 16:00:00,
2013-06-09 12:05:00,66.7,61.0,30.15,SW,216,12.0,17.0,82,0.00,,,0.00,HR-IXPWINDi_r2_v1.2.,2013-06-09 16:05:00,
2013-06-09 12:11:00,67.0,61.3,30.15,SW,217,13.0,18.0,82,0.00,,,0.00,HR-IXPWINDi_r2_v1.2.,2013-06-09 16:11:00,
2013-06-09 12:16:00,67.1,61.4,30.15,SW,219,14.0,18.0,82,0.00,,,0.00,HR-IXPWINDi_r2_v1.2.,2013-06-09 16:16:00,
2013-06-09 12:22:00,67.3,61.2,30.15,SW,222,16.0,19.0,81,0.00,,,0.00,HR-IXPWINDi_r2_v1.2.,2013-06-09 16:22:00,
2013-06-09 12:27:00,67.1,61.4,30.15,SSW,212,12.0,19.0,82,0.00,,,0.00,HR-IXPWINDi_r2_v1.2.,2013-06-09 16:27:00,
2013-06-09 12:32:00,67.3,60.9,30.14,SW,224,15.0,19.0,80,0.00,,,0.00,HR-IXPWINDi_r2_v1.2.,2013-06-09 16:32:00,
2013-06-09 12:37:00,67.3,60.9,30.14,SW,222,21.0,21.0,80,0.00,,,0.00,HR-IXPWINDi_r2_v1.2.,2013-06-09 16:37:00,
2013-06-09 12:42:00,67.0,60.6,30.14,SW,225,16.0,21.0,80,0.00,,,0.00,HR-IXPWINDi_r2_v1.2.,2013-06-09 16:42:00,
2013-06-09 12:48:00,67.4,60.2,30.14,SSW,201,16.0,21.0,78,0.00,,,0.00,HR-IXPWINDi_r2_v1.2.,2013-06-09 16:48:00,
2013-06-09 12:53:00,67.6,61.1,30.14,SW,221,14.0,20.0,80,0.00,,,0.00,HR-IXPWINDi_r2_v1.2.,2013-06-09 16:53:00,
2013-06-09 12:58:00,67.8,60.6,30.14,SW,219,13.0,20.0,78,0.00,,,0.00,HR-IXPWINDi_r2_v1.2.,2013-06-09 16:58:00,
2013-06-09 13:03:00,68.1,60.9,30.14,SW,229,17.0,18.0,78,0.00,,,0.00,HR-IXPWINDi_r2_v1.2.,2013-06-09 17:03:00,
2013-06-09 13:08:00,68.4,60.8,30.14,SSW,212,15.0,20.0,77,0.00,,,0.00,HR-IXPWINDi_r2_v1.2.,2013-06-09 17:08:00,
2013-06-09 13:13:00,68.5,60.9,30.14,SW,219,16.0,21.0,77,0.00,,,0.00,HR-IXPWINDi_r2_v1.2.,2013-06-09 17:13:00,
2013-06-09 13:18:00,68.4,60.5,30.14,SW,216,14.0,21.0,76,0.00,,,0.00,HR-IXPWINDi_r2_v1.2.,2013-06-09 17:18:00,
2013-06-09 13:23:00,68.5,61.3,30.14,SSW,212,16.0,19.0,78,0.00,,,0.00,HR-IXPWINDi_r2_v1.2.,2013-06-09 17:23:00,
2013-06-09 13:28:00,67.6,61.8,30.14,SSW,204,10.0,19.0,82,0.00,,,0.00,HR-IXPWINDi_r2_v1.2.,2013-06-09 17:28:00,
2013-06-09 13:34:00,67.5,61.0,30.14,SW,225,17.0,19.0,80,0.00,,,0.00,HR-IXPWINDi_r2_v1.2.,2013-06-09 17:34:00,
2013-06-09 13:39:00,67.2,60.8,30.14,South,191,15.0,19.0,80,0.00,,,0.00,HR-IXPWINDi_r2_v1.2.,2013-06-09 17:39:00,
2013-06-09 13:44:00,67.3,61.2,30.14,SSW,212,15.0,19.0,81,0.00,,,0.00,HR-IXPWINDi_r2_v1.2.,2013-06-09 17:44:00,
2013-06-09 13:49:00,67.1,61.0,30.14,SW,224,13.0,18.0,81,0.00,,,0.00,HR-IXPWINDi_r2_v1.2.,2013-06-09 17:49:00,
2013-06-09 13:54:00,67.1,60.7,30.14,SSW,210,14.0,20.0,80,0.00,,,0.00,HR-IXPWINDi_r2_v1.2.,2013-06-09 17:54:00,
2013-06-09 13:59:00,67.2,61.5,30.14,SSW,207,13.0,20.0,82,0.00,,,0.00,HR-IXPWINDi_r2_v1.2.,2013-06-09 17:59:00,
2013-06-09 14:05:00,67.1,60.7,30.14,SSW,211,14.0,20.0,80,0.00,,,0.00,HR-IXPWINDi_r2_v1.2.,2013-06-09 18:05:00,
2013-06-09 14:10:00,67.5,61.0,30.14,SW,214,17.0,19.0,80,0.00,,,0.00,HR-IXPWINDi_r2_v1.2.,2013-06-09 18:10:00,
2013-06-09 14:15:00,68.0,61.5,30.13,SW,219,14.0,18.0,80,0.00,,,0.00,HR-IXPWINDi_r2_v1.2.,2013-06-09 18:15:00,
2013-06-09 14:20:00,68.0,61.5,30.13,SW,224,13.0,18.0,80,0.00,,,0.00,HR-IXPWINDi_r2_v1.2.,2013-06-09 18:20:00,
2013-06-09 14:25:00,67.8,61.0,30.13,SW,219,13.0,18.0,79,0.00,,,0.00,HR-IXPWINDi_r2_v1.2.,2013-06-09 18:25:00,
2013-06-09 14:31:00,67.6,61.8,30.14,SW,222,14.0,19.0,82,0.00,,,0.00,HR-IXPWINDi_r2_v1.2.,2013-06-09 18:31:00,
2013-06-09 14:36:00,68.2,61.7,30.13,SSW,210,10.0,19.0,80,0.00,,,0.00,HR-IXPWINDi_r2_v1.2.,2013-06-09 18:36:00,
2013-06-09 14:41:00,68.5,61.7,30.13,SW,217,13.0,16.0,79,0.00,,,0.00,HR-IXPWINDi_r2_v1.2.,2013-06-09 18:41:00,
2013-06-09 14:46:00,68.5,62.0,30.13,SSW,210,12.0,16.0,80,0.00,,,0.00,HR-IXPWINDi_r2_v1.2.,2013-06-09 18:46:00,
2013-06-09 14:51:00,68.9,62.1,30.14,SW,217,17.0,18.0,79,0.00,,,0.00,HR-IXPWINDi_r2_v1.2.,2013-06-09 18:51:00,
2013-06-09 14:57:00,68.6,62.1,30.14,SSW,210,16.0,18.0,80,0.00,,,0.00,HR-IXPWINDi_r2_v1.2.,2013-06-09 18:57:00,
2013-06-09 15:02:00,68.6,63.2,30.14,SSE,165,9.0,20.0,83,0.00,,,0.00,HR-IXPWINDi_r2_v1.2.,2013-06-09 19:02:00,
2013-06-09 15:07:00,68.6,62.1,30.14,SW,219,14.0,20.0,80,0.00,,,0.00,HR-IXPWINDi_r2_v1.2.,2013-06-09 19:07:00,
2013-06-09 15:12:00,68.3,62.2,30.14,SW,219,12.0,17.0,81,0.00,,,0.00,HR-IXPWINDi_r2_v1.2.,2013-06-09 19:12:00,
2013-06-09 15:18:00,68.1,62.3,30.14,SW,226,13.0,17.0,82,0.00,,,0.00,HR-IXPWINDi_r2_v1.2.,2013-06-09 19:18:00,
2013-06-09 15:23:00,67.8,62.0,30.14,SW,219,15.0,17.0,82,0.00,,,0.00,HR-IXPWINDi_r2_v1.2.,2013-06-09 19:23:00,
2013-06-09 15:28:00,67.7,62.3,30.14,SW,217,13.0,17.0,83,0.00,,,0.00,HR-IXPWINDi_r2_v1.2.,2013-06-09 19:28:00,
2013-06-09 15:33:00,67.7,62.3,30.14,SW,218,14.0,19.0,83,0.00,,,0.00,HR-IXPWINDi_r2_v1.2.,2013-06-09 19:33:00,
2013-06-09 15:39:00,67.5,61.7,30.14,SSW,212,12.0,19.0,82,0.00,,,0.00,HR-IXPWINDi_r2_v1.2.,2013-06-09 19:39:00,
2013-06-09 15:44:00,67.4,61.6,30.14,SW,224,16.0,19.0,82,0.00,,,0.00,HR-IXPWINDi_r2_v1.2.,2013-06-09 19:44:00,
2013-06-09 15:49:00,67.5,61.7,30.14,SW,218,13.0,20.0,82,0.00,,,0.00,HR-IXPWINDi_r2_v1.2.,2013-06-09 19:49:00,
2013-06-09 15:55:00,67.8,61.3,30.14,WSW,246,14.0,20.0,80,0.00,,,0.00,HR-IXPWINDi_r2_v1.2.,2013-06-09 19:55:00,
2013-06-09 16:00:00,68.1,61.6,30.13,SW,226,14.0,18.0,80,0.00,,,0.00,HR-IXPWINDi_r2_v1.2.,2013-06-09 20:00:00,
2013-06-09 16:05:00,68.3,61.5,30.13,SW,219,14.0,18.0,79,0.00,,,0.00,HR-IXPWINDi_r2_v1.2.,2013-06-09 20:05:00,
2013-06-09 16:10:00,68.0,61.9,30.13,SW,225,16.0,19.0,81,0.00,,,0.00,HR-IXPWINDi_r2_v1.2.,2013-06-09 20:10:00,
2013-06-09 16:15:00,67.7,61.9,30.13,SW,231,14.0,19.0,82,0.00,,,0.00,HR-IXPWINDi_r2_v1.2.,2013-06-09 20:15:00,
2013-06-09 16:20:00,68.0,62.2,30.13,SW,222,13.0,18.0,82,0.00,,,0.00,HR-IXPWINDi_r2_v1.2.,2013-06-09 20:20:00,
2013-06-09 16:25:00,67.9,62.1,30.13,SW,217,14.0,17.0,82,0.00,,,0.00,HR-IXPWINDi_r2_v1.2.,2013-06-09 20:25:00,
2013-06-09 16:31:00,67.7,61.9,30.13,SW,222,12.0,17.0,82,0.00,,,0.00,HR-IXPWINDi_r2_v1.2.,2013-06-09 20:31:00,
2013-06-09 16:36:00,67.3,61.9,30.13,SSW,212,11.0,16.0,83,0.00,,,0.00,HR-IXPWINDi_r2_v1.2.,2013-06-09 20:36:00,
2013-06-09 16:42:00,67.2,62.1,30.13,SW,219,13.0,15.0,84,0.00,,,0.00,HR-IXPWINDi_r2_v1.2.,2013-06-09 20:42:00,
2013-06-09 16:47:00,67.2,62.1,30.13,SSW,211,9.0,14.0,84,0.00,,,0.00,HR-IXPWINDi_r2_v1.2.,2013-06-09 20:47:00,
2013-06-09 16:52:00,67.2,61.8,30.13,SSW,212,11.0,14.0,83,0.00,,,0.00,HR-IXPWINDi_r2_v1.2.,2013-06-09 20:52:00,
2013-06-09 16:57:00,66.8,61.4,30.13,SSW,211,13.0,16.0,83,0.00,,,0.00,HR-IXPWINDi_r2_v1.2.,2013-06-09 20:57:00,
2013-06-09 17:03:00,66.6,61.5,30.13,SW,222,12.0,16.0,84,0.00,,,0.00,HR-IXPWINDi_r2_v1.2.,2013-06-09 21:03:00,
2013-06-09 17:08:00,66.5,61.5,30.13,SW,229,14.0,16.0,84,0.00,,,0.00,HR-IXPWINDi_r2_v1.2.,2013-06-09 21:08:00,
2013-06-09 17:13:00,66.8,62.1,30.13,SSW,212,11.0,16.0,85,0.00,,,0.00,HR-IXPWINDi_r2_v1.2.,2013-06-09 21:13:00,
2013-06-09 17:18:00,67.1,62.0,30.13,SW,224,9.0,14.0,84,0.00,,,0.00,HR-IXPWINDi_r2_v1.2.,2013-06-09 21:18:00,
2013-06-09 17:23:00,66.9,61.8,30.13,SSW,210,9.0,13.0,84,0.00,,,0.00,HR-IXPWINDi_r2_v1.2.,2013-06-09 21:23:00,
2013-06-09 17:29:00,67.0,62.3,30.13,SSW,210,9.0,12.0,85,0.00,,,0.00,HR-IXPWINDi_r2_v1.2.,2013-06-09 21:29:00,
2013-06-09 17:34:00,67.7,62.6,30.13,SW,222,12.0,14.0,84,0.00,,,0.00,HR-IXPWINDi_r2_v1.2.,2013-06-09 21:34:00,
2013-06-09 17:39:00,68.4,62.6,30.13,SW,231,10.0,15.0,82,0.00,,,0.00,HR-IXPWINDi_r2_v1.2.,2013-06-09 21:39:00,
2013-06-09 17:45:00,68.3,62.2,30.13,SSW,212,13.0,16.0,81,0.00,,,0.00,HR-IXPWINDi_r2_v1.2.,2013-06-09 21:45:00,
2013-06-09 17:50:00,68.1,62.3,30.12,SSW,212,11.0,16.0,82,0.00,,,0.00,HR-IXPWINDi_r2_v1.2.,2013-06-09 21:50:00,
2013-06-09 17:55:00,68.0,62.2,30.13,SW,225,11.0,14.0,82,0.00,,,0.00,HR-IXPWINDi_r2_v1.2.,2013-06-09 21:55:00,
2013-06-09 18:00:00,68.1,62.3,30.13,SW,218,9.0,13.0,82,0.00,,,0.00,HR-IXPWINDi_r2_v1.2.,2013-06-09 22:00:00,
2013-06-09 18:05:00,67.9,62.8,30.13,SSW,207,8.0,13.0,84,0.00,,,0.00,HR-IXPWINDi_r2_v1.2.,2013-06-09 22:05:00,
2013-06-09 18:11:00,67.4,62.3,30.13,SSW,211,9.0,13.0,84,0.00,,,0.00,HR-IXPWINDi_r2_v1.2.,2013-06-09 22:11:00,
2013-06-09 18:16:00,67.2,61.8,30.13,WSW,241,9.0,14.0,83,0.00,,,0.00,HR-IXPWINDi_r2_v1.2.,2013-06-09 22:16:00,
2013-06-09 18:21:00,67.2,61.8,30.13,SW,217,11.0,14.0,83,0.00,,,0.00,HR-IXPWINDi_r2_v1.2.,2013-06-09 22:21:00,
2013-06-09 18:27:00,67.1,62.0,30.13,SW,228,6.0,12.0,84,0.00,,,0.00,HR-IXPWINDi_r2_v1.2.,2013-06-09 22:27:00,
2013-06-09 18:32:00,67.4,62.3,30.13,SSW,212,9.0,11.0,84,0.00,,,0.00,HR-IXPWINDi_r2_v1.2.,2013-06-09 22:32:00,
2013-06-09 18:37:00,67.5,62.4,30.13,South,181,7.0,11.0,84,0.00,,,0.00,HR-IXPWINDi_r2_v1.2.,2013-06-09 22:37:00,
2013-06-09 18:42:00,67.5,61.7,30.13,SW,217,11.0,13.0,82,0.00,,,0.00,HR-IXPWINDi_r2_v1.2.,2013-06-09 22:42:00,
2013-06-09 18:47:00,67.4,62.0,30.14,SW,222,10.0,14.0,83,0.00,,,0.00,HR-IXPWINDi_r2_v1.2.,2013-06-09 22:47:00,
2013-06-09 18:52:00,67.4,61.3,30.14,SW,219,11.0,14.0,81,0.00,,,0.00,HR-IXPWINDi_r2_v1.2.,2013-06-09 22:52:00,
2013-06-09 18:58:00,67.7,62.3,30.14,SSW,210,7.0,13.0,83,0.00,,,0.00,HR-IXPWINDi_r2_v1.2.,2013-06-09 22:58:00,
2013-06-09 19:03:00,68.0,61.9,30.14,WSW,252,10.0,13.0,81,0.00,,,0.00,HR-IXPWINDi_r2_v1.2.,2013-06-09 23:03:00,
2013-06-09 19:08:00,68.1,62.3,30.14,SW,228,8.0,13.0,82,0.00,,,0.00,HR-IXPWINDi_r2_v1.2.,2013-06-09 23:08:00,
2013-06-09 19:13:00,68.0,61.9,30.14,SW,216,9.0,13.0,81,0.00,,,0.00,HR-IXPWINDi_r2_v1.2.,2013-06-09 23:13:00,
2013-06-09 19:18:00,67.8,61.3,30.14,WSW,243,7.0,12.0,80,0.00,,,0.00,HR-IXPWINDi_r2_v1.2.,2013-06-09 23:18:00,
2013-06-09 19:23:00,67.6,61.5,30.14,SSW,212,7.0,11.0,81,0.00,,,0.00,HR-IXPWINDi_r2_v1.2.,2013-06-09 23:23:00,
2013-06-09 19:29:00,67.1,61.0,30.14,SW,225,8.0,12.0,81,0.00,,,0.00,HR-IXPWINDi_r2_v1.2.,2013-06-09 23:29:00,
2013-06-09 19:34:00,66.9,61.5,30.15,SW,219,10.0,12.0,83,0.00,,,0.00,HR-IXPWINDi_r2_v1.2.,2013-06-09 23:34:00,
2013-06-09 19:39:00,66.8,61.4,30.15,SSW,210,5.0,12.0,83,0.00,,,0.00,HR-IXPWINDi_r2_v1.2.,2013-06-09 23:39:00,
2013-06-09 19:44:00,66.7,61.0,30.15,West,267,6.0,12.0,82,0.00,,,0.00,HR-IXPWINDi_r2_v1.2.,2013-06-09 23:44:00,
2013-06-09 19:49:00,66.5,61.1,30.15,SW,233,7.0,12.0,83,0.00,,,0.00,HR-IXPWINDi_r2_v1.2.,2013-06-09 23:49:00,
2013-06-09 19:54:00,66.3,60.9,30.15,SW,231,6.0,13.0,83,0.00,,,0.00,HR-IXPWINDi_r2_v1.2.,2013-06-09 23:54:00,
2013-06-09 19:59:00,66.3,60.6,30.15,SW,222,7.0,13.0,82,0.00,,,0.00,HR-IXPWINDi_r2_v1.2.,2013-06-09 23:59:00,
2013-06-09 20:04:00,66.4,60.3,30.15,WSW,243,7.0,12.0,81,0.00,,,0.00,HR-IXPWINDi_r2_v1.2.,2013-06-10 00:04:00,
2013-06-09 20:09:00,66.4,60.3,30.15,SW,236,5.0,12.0,81,0.00,,,0.00,HR-IXPWINDi_r2_v1.2.,2013-06-10 00:09:00,
2013-06-09 20:15:00,66.4,60.7,30.15,WSW,250,6.0,11.0,82,0.00,,,0.00,HR-IXPWINDi_r2_v1.2.,2013-06-10 00:15:00,
2013-06-09 20:20:00,66.4,60.7,30.15,WSW,245,7.0,12.0,82,0.00,,,0.00,HR-IXPWINDi_r2_v1.2.,2013-06-10 00:20:00,
2013-06-09 20:25:00,66.3,60.2,30.15,WSW,244,6.0,12.0,81,0.00,,,0.00,HR-IXPWINDi_r2_v1.2.,2013-06-10 00:25:00,
2013-06-09 20:30:00,66.4,60.7,30.15,SSW,204,5.0,9.0,82,0.00,,,0.00,HR-IXPWINDi_r2_v1.2.,2013-06-10 00:30:00,
2013-06-09 20:36:00,66.5,60.8,30.15,West,271,5.0,9.0,82,0.00,,,0.00,HR-IXPWINDi_r2_v1.2.,2013-06-10 00:36:00,
2013-06-09 20:41:00,66.3,60.6,30.15,WSW,246,4.0,9.0,82,0.00,,,0.00,HR-IXPWINDi_r2_v1.2.,2013-06-10 00:41:00,
2013-06-09 20:46:00,66.3,60.6,30.15,WSW,252,7.0,8.0,82,0.00,,,0.00,HR-IXPWINDi_r2_v1.2.,2013-06-10 00:46:00,
2013-06-09 20:51:00,66.6,60.9,30.16,SSW,211,6.0,9.0,82,0.00,,,0.00,HR-IXPWINDi_r2_v1.2.,2013-06-10 00:51:00,
2013-06-09 20:56:00,66.5,61.1,30.15,SW,217,7.0,10.0,83,0.00,,,0.00,HR-IXPWINDi_r2_v1.2.,2013-06-10 00:56:00,
2013-06-09 21:01:00,66.4,61.0,30.16,SW,236,4.0,10.0,83,0.00,,,0.00,HR-IXPWINDi_r2_v1.2.,2013-06-10 01:01:00,
2013-06-09 21:07:00,66.2,60.5,30.16,WSW,243,3.0,9.0,82,0.00,,,0.00,HR-IXPWINDi_r2_v1.2.,2013-06-10 01:07:00,
2013-06-09 21:12:00,66.1,60.4,30.16,SW,231,6.0,8.0,82,0.00,,,0.00,HR-IXPWINDi_r2_v1.2.,2013-06-10 01:12:00,
2013-06-09 21:17:00,66.2,60.5,30.16,SW,228,6.0,11.0,82,0.00,,,0.00,HR-IXPWINDi_r2_v1.2.,2013-06-10 01:17:00,
2013-06-09 21:22:00,66.0,60.3,30.16,West,263,6.0,11.0,82,0.00,,,0.00,HR-IXPWINDi_r2_v1.2.,2013-06-10 01:22:00,
2013-06-09 21:28:00,65.7,60.0,30.16,WSW,252,4.0,7.0,82,0.00,,,0.00,HR-IXPWINDi_r2_v1.2.,2013-06-10 01:28:00,
2013-06-09 21:33:00,65.4,60.0,30.17,SW,231,2.0,7.0,83,0.00,,,0.00,HR-IXPWINDi_r2_v1.2.,2013-06-10 01:33:00,
2013-06-09 21:38:00,65.1,60.1,30.17,WSW,243,2.0,4.0,84,0.00,,,0.00,HR-IXPWINDi_r2_v1.2.,2013-06-10 01:38:00,
2013-06-09 21:43:00,64.9,60.2,30.17,WSW,248,1.0,4.0,85,0.00,,,0.00,HR-IXPWINDi_r2_v1.2.,2013-06-10 01:43:00,
2013-06-09 21:48:00,64.7,60.3,30.18,WSW,252,1.0,3.0,86,0.00,,,0.00,HR-IXPWINDi_r2_v1.2.,2013-06-10 01:48:00,
2013-06-09 21:53:00,64.5,60.2,30.18,West,281,0.0,3.0,86,0.00,,,0.00,HR-IXPWINDi_r2_v1.2.,2013-06-10 01:53:00,
2013-06-09 21:59:00,64.4,60.4,30.18,West,260,1.0,3.0,87,0.00,,,0.00,HR-IXPWINDi_r2_v1.2.,2013-06-10 01:59:00,
2013-06-09 22:04:00,64.3,60.6,30.18,West,263,1.0,3.0,88,0.00,,,0.00,HR-IXPWINDi_r2_v1.2.,2013-06-10 02:04:00,
2013-06-09 22:09:00,64.1,60.7,30.18,SSW,200,4.0,5.0,89,0.00,,,0.00,HR-IXPWINDi_r2_v1.2.,2013-06-10 02:09:00,
2013-06-09 22:14:00,63.9,60.8,30.18,SSW,207,4.0,5.0,90,0.00,,,0.00,HR-IXPWINDi_r2_v1.2.,2013-06-10 02:14:00,
2013-06-09 22:19:00,63.9,60.8,30.18,WSW,250,5.0,6.0,90,0.00,,,0.00,HR-IXPWINDi_r2_v1.2.,2013-06-10 02:19:00,
2013-06-09 22:25:00,63.9,60.8,30.19,SW,231,2.0,6.0,90,0.00,,,0.00,HR-IXPWINDi_r2_v1.2.,2013-06-10 02:25:00,
2013-06-09 22:30:00,63.7,60.6,30.19,WSW,238,3.0,6.0,90,0.00,,,0.00,HR-IXPWINDi_r2_v1.2.,2013-06-10 02:30:00,
2013-06-09 22:35:00,63.6,60.2,30.19,WSW,248,3.0,6.0,89,0.00,,,0.00,HR-IXPWINDi_r2_v1.2.,2013-06-10 02:35:00,
2013-06-09 22:40:00,63.4,60.0,30.19,West,270,1.0,6.0,89,0.00,,,0.00,HR-IXPWINDi_r2_v1.2.,2013-06-10 02:40:00,
2013-06-09 22:45:00,63.0,60.0,30.19,West,259,1.0,5.0,90,0.00,,,0.00,HR-IXPWINDi_r2_v1.2.,2013-06-10 02:45:00,
2013-06-09 22:50:00,62.8,60.1,30.19,WSW,257,2.0,4.0,91,0.00,,,0.00,HR-IXPWINDi_r2_v1.2.,2013-06-10 02:50:00,
2013-06-09 22:55:00,62.5,59.8,30.18,WSW,248,1.0,4.0,91,0.00,,,0.00,HR-IXPWINDi_r2_v1.2.,2013-06-10 02:55:00,
2013-06-09 23:00:00,62.2,59.8,30.19,WSW,244,0.0,2.0,92,0.00,,,0.00,HR-IXPWINDi_r2_v1.2.,2013-06-10 03:00:00,
2013-06-09 23:06:00,62.0,59.6,30.19,WSW,243,0.0,2.0,92,0.00,,,0.00,HR-IXPWINDi_r2_v1.2.,2013-06-10 03:06:00,
2013-06-09 23:11:00,62.0,59.6,30.18,WNW,284,1.0,2.0,92,0.00,,,0.00,HR-IXPWINDi_r2_v1.2.,2013-06-10 03:11:00,
2013-06-09 23:16:00,62.1,59.4,30.18,West,260,1.0,2.0,91,0.00,,,0.00,HR-IXPWINDi_r2_v1.2.,2013-06-10 03:16:00,
2013-06-09 23:21:00,62.0,59.3,30.19,SW,233,1.0,2.0,91,0.00,,,0.00,HR-IXPWINDi_r2_v1.2.,2013-06-10 03:21:00,
2013-06-09 23:27:00,62.0,59.6,30.19,SW,225,0.0,2.0,92,0.00,,,0.00,HR-IXPWINDi_r2_v1.2.,2013-06-10 03:27:00,
2013-06-09 23:32:00,62.0,59.6,30.19,SW,228,0.0,1.0,92,0.00,,,0.00,HR-IXPWINDi_r2_v1.2.,2013-06-10 03:32:00,
2013-06-09 23:37:00,62.0,59.6,30.19,West,278,0.0,2.0,92,0.00,,,0.00,HR-IXPWINDi_r2_v1.2.,2013-06-10 03:37:00,
2013-06-09 23:42:00,62.1,59.4,30.19,West,267,0.0,2.0,91,0.00,,,0.00,HR-IXPWINDi_r2_v1.2.,2013-06-10 03:42:00,
2013-06-09 23:47:00,62.2,59.5,30.19,West,266,0.0,2.0,91,0.00,,,0.00,HR-IXPWINDi_r2_v1.2.,2013-06-10 03:47:00,
2013-06-09 23:52:00,62.2,59.5,30.19,WNW,290,2.0,3.0,91,0.00,,,0.00,HR-IXPWINDi_r2_v1.2.,2013-06-10 03:52:00,
2013-06-09 23:58:00,62.1,59.4,30.19,West,278,1.0,3.0,91,0.00,,,0.00,HR-IXPWINDi_r2_v1.2.,2013-06-10 03:58:00,